Spokane Fairchild, WA

4:44 AM PDT on March 23, 2017 (GMT -0700)
Fairchild Air Force Base

Weather History for KSKA - November, 2012

Change the Weather History Date:

Thursday, November 1, 2012

  Actual Average Record
Temperature  
Mean Temperature 48 °F -  
Max Temperature 56 °F 45 °F 56 °F (2008)
Min Temperature 42 °F 28 °F 12 °F (2002)
Degree Days  
Heating Degree Days 16    
Moisture  
Dew Point 46 °F    
Average Humidity 99    
Maximum Humidity 100    
Minimum Humidity 67    
Precipitation  
Precipitation 0.09 in - - ()
Sea Level Pressure  
Sea Level Pressure 29.88 in    
Wind  
Wind Speed 7 mph (South)    
Max Wind Speed 17 mph    
Max Gust Speed 28 mph    
Visibility 8 miles    
Events Rain    
Averages and records for this station are not official NWS values.
T = Trace of Precipitation, MM = Missing Value Source: NWS Daily Summary

Daily Weather History Graph

Daily Weather History Graph

Search for Another Location

Airport or City:

Trip Planner

Search our weather history database for the weather conditions in past years. The results will help you decide how hot, cold, wet, or windy it might be!

Date:

Astronomy

Nov. 01, 2012 Rise Set
Actual Time 7:35 AM PDT 5:32 PM PDT
Civil Twilight 7:03 AM PDT 6:04 PM PDT
Nautical Twilight 6:26 AM PDT 6:40 PM PDT
Astronomical Twilight 5:51 AM PDT 7:16 PM PDT
Moon 7:23 PM PDT (11/1) 10:21 AM PDT (11/1)
Length of Visible Light 11h 01m
Length of Day
9h 56m
Waning Gibbous, 92% of the Moon is Illuminated
Nov 1
Waning Gibbous
Nov 6
Last Quarter
Nov 13
New
Nov 20
First Quarter
Nov 28
Full

Hourly Weather History & Observations

Time (PDT) Temp. Windchill Dew Point Humidity Pressure Visibility Wind Dir Wind Speed Gust Speed Precip Events Conditions
12:14 AM 50.0 °F - 50.0 °F 100% 29.81 in 10.0 mi South 10.4 mph - N/A Rain Light Rain
12:55 AM 48.2 °F - 48.2 °F 100% 29.82 in 10.0 mi SSE 8.1 mph - 0.02 in Rain Light Rain
12:59 AM 48.2 °F - 48.2 °F 100% 29.82 in 10.0 mi South 8.1 mph - N/A   Overcast
1:01 AM 48.2 °F - 48.2 °F 100% 29.82 in 10.0 mi South 9.2 mph - N/A Rain Light Rain
1:17 AM 48.2 °F - 48.2 °F 100% 29.82 in 10.0 mi South 6.9 mph - N/A   Mostly Cloudy
1:55 AM 45.7 °F 42.0 °F 45.7 °F 100% 29.82 in 10.0 mi SSE 6.9 mph - 0.00 in   Clear
2:22 AM 44.6 °F 41.4 °F 44.6 °F 100% 29.83 in 2.5 mi SE 5.8 mph - N/A   Clear
2:25 AM 44.6 °F 40.7 °F 44.6 °F 100% 29.82 in 1.8 mi SE 6.9 mph - N/A   Clear
2:26 AM 44.6 °F 41.4 °F 44.6 °F 100% 29.82 in 1.8 mi SE 5.8 mph - N/A   Clear
2:29 AM 44.6 °F 41.4 °F 44.6 °F 100% 29.82 in 1.2 mi SSE 5.8 mph - N/A   Clear
2:32 AM 44.6 °F 40.7 °F 44.6 °F 100% 29.82 in 1.0 mi SE 6.9 mph - N/A   Clear
2:36 AM 44.6 °F 41.4 °F 44.6 °F 100% 29.82 in 0.8 mi SSE 5.8 mph - N/A   Clear
2:37 AM 44.6 °F 41.4 °F 44.6 °F 100% 29.82 in 0.8 mi SSE 5.8 mph - N/A   Clear
2:42 AM 44.6 °F 41.4 °F 44.6 °F 100% 29.82 in 1.0 mi SSE 5.8 mph - N/A   Clear
2:45 AM 44.6 °F 40.7 °F 44.6 °F 100% 29.82 in 1.2 mi SE 6.9 mph - N/A   Clear
2:47 AM 44.6 °F 40.7 °F 44.6 °F 100% 29.82 in 1.5 mi SSE 6.9 mph - N/A   Clear
2:49 AM 44.6 °F 40.7 °F 44.6 °F 100% 29.82 in 2.0 mi SSE 6.9 mph - N/A   Clear
2:51 AM 44.6 °F 41.4 °F 44.6 °F 100% 29.82 in 3.0 mi SSE 5.8 mph - N/A   Clear
2:53 AM 44.6 °F 41.4 °F 44.6 °F 100% 29.82 in 6.0 mi SSE 5.8 mph - N/A   Clear
2:55 AM 45.0 °F 41.2 °F 45.0 °F 100% 29.82 in 8.0 mi SSE 6.9 mph - N/A   Clear
3:55 AM 43.3 °F 39.9 °F 43.3 °F 100% 29.82 in 10.0 mi SE 5.8 mph - N/A   Clear
4:16 AM 42.8 °F - 42.8 °F 100% 29.83 in 5.0 mi Calm Calm - N/A   Clear
4:37 AM 42.8 °F - 42.8 °F 100% 29.83 in 9.0 mi Calm Calm - N/A   Clear
4:55 AM 44.2 °F 42.7 °F 44.2 °F 100% 29.83 in 10.0 mi SE 3.5 mph - N/A   Clear
5:55 AM 42.8 °F 40.1 °F 42.8 °F 100% 29.83 in 10.0 mi SE 4.6 mph - N/A   Overcast
6:33 AM 44.6 °F 42.2 °F 44.6 °F 100% 29.84 in 10.0 mi SE 4.6 mph - N/A Rain Light Rain
6:42 AM 44.6 °F 42.2 °F 44.6 °F 100% 29.84 in 10.0 mi SE 4.6 mph - N/A   Overcast
6:55 AM 44.1 °F - 44.1 °F 100% 29.84 in 10.0 mi Calm Calm - 0.00 in   Overcast
7:22 AM 44.6 °F - 44.6 °F 100% 29.86 in 10.0 mi Calm Calm - N/A   Light Drizzle
7:31 AM 44.6 °F 40.7 °F 44.6 °F 100% 29.86 in 10.0 mi SW 6.9 mph - N/A Rain Light Rain
7:33 AM 46.4 °F 42.9 °F 46.4 °F 100% 29.86 in 10.0 mi SW 6.9 mph - N/A Rain Light Rain
7:37 AM 46.4 °F 42.4 °F 46.4 °F 100% 29.86 in 10.0 mi SSW 8.1 mph - N/A Rain Light Rain
7:43 AM 46.4 °F 41.9 °F 46.4 °F 100% 29.86 in 10.0 mi SSW 9.2 mph - N/A Rain Light Rain
7:55 AM 45.3 °F 41.6 °F 45.3 °F 100% 29.86 in 10.0 mi SSW 6.9 mph - 0.01 in Rain Light Rain
8:32 AM 44.6 °F 39.7 °F 44.6 °F 100% 29.88 in 7.0 mi SSW 9.2 mph - N/A Rain Rain
8:37 AM 46.4 °F 41.5 °F 46.4 °F 100% 29.88 in 6.0 mi SSW 10.4 mph - N/A Rain Rain
8:48 AM 46.4 °F 42.4 °F 46.4 °F 100% 29.88 in 5.0 mi SSW 8.1 mph - N/A Rain Rain
8:55 AM 45.5 °F 43.2 °F 45.5 °F 100% 29.87 in 9.0 mi SSE 4.6 mph - 0.05 in Rain Light Rain
9:03 AM 44.6 °F 42.2 °F 44.6 °F 100% 29.87 in 10.0 mi SSE 4.6 mph - N/A Rain Light Rain
9:12 AM 46.4 °F 44.3 °F 46.4 °F 100% 29.87 in 10.0 mi SE 4.6 mph - N/A   Overcast
9:55 AM 47.3 °F - 47.3 °F 100% 29.86 in 10.0 mi Calm Calm - 0.00 in   Mostly Cloudy
10:41 AM 48.2 °F - 48.2 °F 100% 29.86 in 10.0 mi SE 3.5 mph - N/A   Overcast
10:55 AM 48.6 °F - 48.6 °F 100% 29.87 in 10.0 mi SE 4.6 mph - N/A   Overcast
11:55 AM 52.7 °F - 52.7 °F 100% 29.88 in 10.0 mi SSE 13.8 mph - N/A   Mostly Cloudy
12:55 PM 52.7 °F - 52.2 °F 98% 29.87 in 10.0 mi South 10.4 mph - N/A   Mostly Cloudy
1:55 PM 52.9 °F - 46.8 °F 80% 29.87 in 10.0 mi SSW 12.7 mph 27.6 mph 0.01 in   Mostly Cloudy
2:55 PM 55.2 °F - 44.6 °F 67% 29.88 in 10.0 mi SSW 17.3 mph - N/A   Partly Cloudy
3:55 PM 51.6 °F - 47.8 °F 87% 29.91 in 10.0 mi SW 15.0 mph - N/A   Partly Cloudy
4:50 PM 50.0 °F - 48.2 °F 94% 29.92 in 10.0 mi SSW 11.5 mph - N/A   Mostly Cloudy
4:55 PM 49.3 °F - 47.8 °F 95% 29.93 in 10.0 mi SSW 11.5 mph - N/A   Mostly Cloudy
5:38 PM 48.2 °F - 48.2 °F 100% 29.94 in 10.0 mi SSW 9.2 mph - N/A   Overcast
5:55 PM 48.6 °F - 48.6 °F 100% 29.94 in 10.0 mi SSW 6.9 mph - N/A   Overcast
6:55 PM 47.1 °F - 47.1 °F 100% 29.97 in 10.0 mi SSW 9.2 mph - N/A   Overcast
7:55 PM 46.4 °F 41.9 °F 46.4 °F 100% 29.98 in 10.0 mi South 9.2 mph - N/A   Mostly Cloudy
8:55 PM 43.5 °F 39.4 °F 43.5 °F 100% 30.00 in 10.0 mi SSW 6.9 mph - N/A   Clear
9:44 PM 42.8 °F 38.6 °F 42.8 °F 100% 30.02 in 10.0 mi South 6.9 mph - N/A   Partly Cloudy
9:55 PM 42.8 °F 39.3 °F 42.8 °F 100% 30.03 in 10.0 mi South 5.8 mph - N/A   Partly Cloudy
10:02 PM 42.8 °F 41.1 °F 42.8 °F 100% 30.03 in 10.0 mi South 3.5 mph - N/A   Partly Cloudy
10:12 PM 42.8 °F 41.1 °F 42.8 °F 100% 30.03 in 10.0 mi South 3.5 mph - N/A   Clear
10:20 PM 42.8 °F 40.1 °F 42.8 °F 100% 30.03 in 10.0 mi SSW 4.6 mph - N/A   Partly Cloudy
10:41 PM 42.8 °F 36.6 °F 42.8 °F 100% 30.04 in 10.0 mi South 11.5 mph - N/A   Mostly Cloudy
10:55 PM 43.3 °F 37.7 °F 43.3 °F 100% 30.04 in 9.0 mi South 10.4 mph - 0.00 in   Mostly Cloudy
11:22 PM 42.8 °F 37.5 °F 42.8 °F 100% 30.05 in 5.0 mi South 9.2 mph - N/A   Overcast
11:55 PM 43.3 °F 40.7 °F 43.3 °F 100% 30.05 in 3.0 mi South 4.6 mph - N/A   Overcast